Home > Weather > Lahr > Past weeks

Flag for Germany Past Weather in Lahr, Baden-Württemberg, Germany — Yesterday and Last 2 Weeks

Now
76 °F

Overcast.


Feels Like: 78 °F
Forecast: 61 / 80 °F
Wind: 2 mph from Southwest

Location: Lahr

Current Time: Jul 23, 2016 at 3:16:07 PM

Latest Report: Jul 23, 2016 at 1:00 PM


Visibility: 22 mi

Pressure: 30.03 "Hg

Humidity: 60%

Dew Point: 61 °F

Location of LahrLocation

Past Weather in Lahr — Graph

°F

Lahr Temperature Yesterday

Maximum temperature yesterday: 81 °F (at 4:00 PM)
Minimum temperature yesterday: 63 °F (at 6:00 AM)
Average temperature yesterday: 70 °F

High & Low Weather Summary for the Past Weeks

 TemperatureHumidityPressure
High94 °F (Jul 20, 6:00 PM)97% (Jul 21, 7:00 AM)30.35 "Hg (Jul 21, 7:00 AM)
Low49 °F (Jul 16, 4:00 AM)26% (Jul 20, 6:00 PM)29.82 "Hg (Jul 10, 7:00 PM)
Average70 °F69%30.07 "Hg
* Reported Jul 8 1:00 PM — Jul 23 1:00 PM, Lahr, Weather by CustomWeather, © 2016

Note: Actual official high and low records may vary slightly from our data, if they occured in-between our weather recording intervals... More about our weather records

Advertising

Lahr Weather History for the Previous 24 Hours

Scroll right to see more
 ConditionsComfort  
Time TempWeatherWind HumidityBarometerVisibility
1:00 PM
Sat, Jul 23
76 °FOvercast.2 mph60%30.03 "Hg22 mi
12:00 PM74 °FOvercast.2 mph65%30.05 "Hg17 mi
10:00 AM70 °FOvercast.3 mph76%30.04 "Hg10 mi
9:00 AM67 °FOvercast.2 mph84%30.04 "Hg7 mi
7:00 AM65 °FOvercast.2 mph95%30.03 "Hg16 mi
6:00 AM65 °FOvercast.2 mph96%30.03 "Hg16 mi
4:00 AM66 °FOvercast.1 mph93%30.02 "Hg19 mi
3:00 AM66 °FOvercast.2 mph92%30.02 "Hg19 mi
1:00 AM66 °FOvercast.1 mph95%30.03 "Hg14 mi
12:00 AM67 °FOvercast.2 mph91%30.03 "Hg22 mi
10:00 PM
Fri, Jul 22
68 °FOvercast.2 mph84%30.01 "Hg43 mi
9:00 PM69 °FOvercast.1 mph86%30.00 "Hg25 mi
7:00 PM70 °FThunderstorms. Overcast.2 mph79%30.00 "Hg16 mi
6:00 PM69 °FThundershowers. Overcast.7 mph82%29.98 "Hg22 mi
4:00 PM81 °FOvercast.1 mph58%29.93 "Hg25 mi
3:00 PM79 °FOvercast.3 mph60%29.92 "Hg25 mi
Weather by CustomWeather, © 2016

See weather overviewHow to use our weather pages